Location: Fort Worth, Tx
(32.7431°N, 97.3695°W)
Time: 09:40:07
(UTC-04:00)

Explorer 11/Cluster Stage 4 - Pass Details

Date: 03 March 2024
Orbit: 465 x 1219 km, 28.8° (Epoch: 24 April)

Event Time Altitude Azimuth Distance (km) Brightness Sun altitude
Rises 21:03:20 0° 211° (SSW) 3,306 10.1 -20.6°
Reaches altitude 10° 21:06:19 10° 194° (SSW) 2,518 9.3 -21.3°
Enters shadow 21:10:17 20° 154° (SSE) 2,053 8.4 -22.1°
